Weather in Legian

Indonesia     8°43′09″S   115°10′09″E
temp.,
°C
wind,
m/s
gust,
m/s
humid.,
%
clouds,
%
prec.,
mm/h
press.,
hPa
HPBL,
m
14 june, mon
mon1423:00+28ese6677100 1.6 1013762
02:00+27ese557789 2.4 1011810
05:00+28ese557620 0.1 1011841
08:00+27ese5578100 0.8 1012624
11:00+28ese557666 2.6 1012748
14:00+28ese5676100 3.3 1010704
17:00+28ese567796 0.8 1010782
20:00+28ese6678100 1.6 1011764
15 june, tue
tue1523:00+28ese567959 1.3 1011723
02:00+27ese678044 3.0 1010777
05:00+27e578084 1.6 1010813
08:00+28e677993 2.5 1011858
11:00+28ese677831 1.2 1011777
14:00+28se777931 1.8 1009788
17:00+27se678096 2.5 1009741
20:00+28ese777869 5.7 1011832
16 june, wed
wed1623:00+27ese677999 1.5 1012662
02:00+27ese777770 2.1 1010805
05:00+27ese777771 0.3 1010819
08:00+27ese6776100 0.3 1012818
11:00+28ese6775100 0.2 1012860
14:00+28ese6674100 0.4 1010862
17:00+28se6572100 0.4 1010879
20:00+27se5576100 2.5 1013699
17 june, thu
thu1723:00+27ese4574100 2.0 1014835
02:00+27ese777578 2.8 1012882
05:00+27ese787591 0.3 1012888
08:00+27ese8876100 0.4 1013784
11:00+27se777492 0.4 1013805
14:00+28ese77727 0.4 1011879
17:00+27ese777219 0.0 1011972
20:00+27ese7773100 0.1 1013966
18 june, fri
fri1823:00+27se7771100 0.1 1013992
02:00+27ese6772100 0.4 1012926
05:00+27ese7772100 0.1 1012942
08:00+27ese567299 0.1 1013873
11:00+27ese677698 0.6 1013772
14:00+27se667587 1.1 1011863
17:00+27se567716 1.3 1011758
20:00+28se777630 2.3 1012914